GW4785 Weather Reports


time (UTC)temp
C
wind
direction
speed
KPH
gust
KPH
rain 1hr
cm
rain 24hr
cm
rain mn
cm
humidity
%
barometer
mb
20260906104807 21 67 3.2 4.8 0.00 0.00 0.00 99 1013.7
20260906104305 21 101 3.2 4.8 0.00 0.00 0.00 99 1013.7
20260906103803 21 151 3.2 6.4 0.00 0.00 0.00 99 1013.8
20260906103303 21 142 1.6 4.8 0.00 0.00 0.00 99 1013.8
20260906102759 21 77 3.2 6.4 0.00 0.00 0.00 99 1013.6
20260906102257 21 82 3.2 6.4 0.00 0.00 0.00 99 1013.5
20260906101753 21 104 6.4 6.4 0.00 0.00 0.00 99 1013.4
20260906101248 21 102 1.6 3.2 0.00 0.00 0.00 99 1013.4
20260906100743 21 346 4.8 6.4 0.00 0.00 0.00 99 1013.4
20260906100242 21 91 3.2 4.8 0.00 0.00 0.00 99 1013.4
20260906095738 21 13 3.2 4.8 0.00 0.00 0.00 99 1013.3
20260906095233 21 43 3.2 3.2 0.00 0.00 0.00 99 1013.3
20260906094732 21 97 1.6 3.2 0.00 0.00 0.00 99 1013.1
20260906094222 21 345 3.2 4.8 0.00 0.00 0.00 99 1013.2
20260906093718 21 336 3.2 4.8 0.00 0.00 0.00 99 1013.1
20260906093213 21 29 1.6 3.2 0.00 0.00 0.00 99 1013.4
20260906092708 21 79 3.2 4.8 0.00 0.00 0.00 99 1013.1
20260906092208 21 31 3.2 4.8 0.00 0.00 0.00 99 1013.0
20260906091704 21 97 1.6 4.8 0.00 0.00 0.00 99 1013.2
20260906091200 21 39 3.2 4.8 0.00 0.00 0.00 99 1013.1
20260906090656 21 106 1.6 3.2 0.00 0.00 0.00 99 1013.1
20260906090155 21 111 1.6 3.2 0.00 0.00 0.00 99 1013.2
20260906085654 21 113 0.0 3.2 0.00 0.00 0.00 99 1013.1
20260906085148 21 94 3.2 4.8 0.00 0.00 0.00 99 1012.9
20260906084643 21 93 1.6 1.6 0.00 0.00 0.00 99 1012.9
20260906084142 21 98 0.0 3.2 0.00 0.00 0.00 99 1013.0
20260906083637 21 115 0.0 3.2 0.00 0.00 0.00 99 1013.1
20260906083132 21 105 1.6 1.6 0.00 0.00 0.00 99 1013.1
20260906082628 21 123 0.0 0.0 0.00 0.00 0.00 99 1013.0
20260906082123 21 130 0.0 1.6 0.00 0.00 0.00 99 1012.9
20260906081619 21 88 1.6 3.2 0.00 0.00 0.00 99 1013.0
20260906081114 20 121 0.0 0.0 0.00 0.00 0.00 99 1013.0
20260906080611 20 118 0.0 1.6 0.00 0.00 0.00 99 1013.0
20260906080107 20 124 0.0 0.0 0.00 0.00 0.00 99 1012.8
20260906075601 20 121 0.0 0.0 0.00 0.00 0.00 99 1013.1
20260906075056 21 126 0.0 1.6 0.00 0.00 0.00 99 1013.2
20260906074551 21 135 1.6 1.6 0.00 0.00 0.00 99 1013.1
20260906074049 21 125 0.0 0.0 0.00 0.00 0.00 99 1013.2
20260906073544 21 130 0.0 1.6 0.00 0.00 0.00 99 1013.2
20260906073041 21 147 0.0 1.6 0.00 0.00 0.00 99 1013.1
20260906072535 21 127 0.0 0.0 0.00 0.00 0.00 99 1012.9
20260906072032 21 126 0.0 0.0 0.00 0.00 0.00 99 1012.8
20260906071527 21 113 0.0 0.0 0.00 0.00 0.00 99 1012.9
20260906071022 21 113 0.0 0.0 0.00 0.00 0.00 99 1013.0
20260906070518 21 114 0.0 1.6 0.00 0.00 0.00 99 1013.0
20260906070014 21 103 0.0 1.6 0.00 0.00 0.00 99 1013.1
20260906065507 21 107 0.0 1.6 0.00 0.00 0.00 98 1013.2
20260906065004 21 114 0.0 0.0 0.00 0.00 0.00 97 1013.2
20260906064459 22 111 0.0 0.0 0.00 0.00 0.00 97 1013.4
20260906063954 22 103 0.0 1.6 0.00 0.00 0.00 97 1013.3
20260906063450 22 97 1.6 3.2 0.00 0.00 0.00 97 1013.5
20260906062950 22 109 1.6 3.2 0.00 0.00 0.00 96 1013.5
20260906062445 22 98 1.6 1.6 0.00 0.00 0.00 96 1013.4
20260906061939 22 94 1.6 1.6 0.00 0.00 0.00 95 1013.6
20260906061436 22 93 1.6 3.2 0.00 0.00 0.00 95 1013.4
20260906060930 22 79 1.6 3.2 0.00 0.00 0.00 94 1013.3
20260906060427 22 73 3.2 3.2 0.00 0.00 0.00 95 1013.5
20260906055923 22 90 1.6 1.6 0.00 0.00 0.00 96 1013.5
20260906055419 22 115 0.0 0.0 0.00 0.00 0.00 96 1013.6
20260906054914 22 107 1.6 3.2 0.00 0.00 0.00 96 1013.6
20260906054409 22 115 0.0 0.0 0.00 0.00 0.00 97 1013.6
20260906053905 22 111 0.0 1.6 0.00 0.00 0.00 97 1013.6
20260906053400 22 70 1.6 3.2 0.00 0.00 0.00 98 1013.7
20260906052856 22 109 0.0 0.0 0.00 0.00 0.00 98 1013.6
20260906052352 22 112 0.0 1.6 0.00 0.00 0.00 98 1013.6
20260906051849 22 96 1.6 3.2 0.00 0.00 0.00 98 1013.5
20260906051349 22 115 0.0 1.6 0.00 0.00 0.00 98 1013.7
20260906050844 22 106 1.6 1.6 0.00 0.00 0.00 98 1013.7
20260906050339 22 100 1.6 1.6 0.00 0.00 0.00 98 1013.6
20260906045838 22 90 3.2 3.2 0.00 0.00 0.00 97 1013.6
20260906045332 22 121 0.0 0.0 0.00 0.00 0.00 98 1013.5
20260906044828 22 123 0.0 1.6 0.00 0.00 0.00 97 1013.6
20260906044323 22 123 0.0 1.6 0.00 0.00 0.00 97 1013.7
20260906043819 22 136 1.6 1.6 0.00 0.00 0.00 97 1013.5
20260906043315 23 116 0.0 0.0 0.00 0.00 0.00 96 1013.4
20260906042814 23 117 1.6 1.6 0.00 0.00 0.00 96 1013.4
20260906042314 22 115 0.0 0.0 0.00 0.00 0.00 95 1013.4
20260906041809 22 120 0.0 1.6 0.00 0.00 0.00 96 1013.5
20260906041304 23 116 1.6 1.6 0.00 0.00 0.00 96 1013.4
20260906040800 23 103 0.0 1.6 0.00 0.00 0.00 91 1013.3
20260906040255 23 63 3.2 6.4 0.00 0.00 0.00 90 1013.2
20260906035750 24 60 3.2 4.8 0.00 0.76 0.76 90 1013.2
20260906035246 24 53 1.6 3.2 0.00 0.76 0.76 89 1013.3
20260906034745 24 93 1.6 3.2 0.00 0.76 0.76 90 1013.2
20260906034240 24 39 3.2 4.8 0.00 0.76 0.76 91 1013.0
20260906033736 24 109 0.0 4.8 0.00 0.76 0.76 92 1013.0
20260906033235 24 72 3.2 6.4 0.00 0.76 0.76 91 1012.9
20260906032732 24 70 3.2 4.8 0.00 0.76 0.76 93 1012.9
20260906032227 24 94 1.6 6.4 0.00 0.76 0.76 93 1012.8
20260906031722 24 34 1.6 6.4 0.00 0.76 0.76 94 1012.8
20260906031218 24 84 4.8 6.4 0.00 0.76 0.76 95 1013.0
20260906030717 24 95 1.6 3.2 0.00 0.76 0.76 96 1012.9
20260906030212 23 47 1.6 6.4 0.00 0.76 0.76 99 1013.1
20260906025712 23 98 3.2 4.8 0.00 0.76 0.76 99 1012.8
20260906025212 23 107 8.0 11.3 0.00 0.76 0.76 99 1013.1
20260906024711 23 115 0.0 1.6 0.00 0.76 0.76 99 1012.9
20260906024210 23 86 3.2 4.8 0.00 0.76 0.76 99 1012.9
20260906023706 23 120 0.0 0.0 0.00 0.76 0.76 99 1012.9
20260906023201 23 120 0.0 0.0 0.00 0.76 0.76 99 1012.9
20260906022656 23 117 0.0 0.0 0.00 0.76 0.76 99 1012.7
20260906022152 23 117 0.0 0.0 0.00 0.76 0.76 99 1012.7
20260906021647 23 117 0.0 0.0 0.00 0.76 0.76 99 1012.7
20260906021146 23 117 0.0 0.0 0.00 0.76 0.76 99 1012.7
20260906020640 23 117 0.0 0.0 0.00 0.76 0.76 99 1012.5
20260906020135 23 115 0.0 1.6 0.00 0.76 0.76 99 1012.6
20260906015629 24 128 0.0 1.6 0.00 0.76 0.76 99 1012.3
20260906015128 24 120 0.0 0.0 0.00 0.76 0.76 99 1012.4
20260906014623 24 120 0.0 0.0 0.00 0.76 0.76 99 1012.7
20260906014120 24 120 0.0 0.0 0.00 0.76 0.76 99 1012.5
20260906013614 24 108 0.0 1.6 0.00 0.76 0.76 99 1012.7
20260906013109 24 114 0.0 0.0 0.00 0.76 0.76 99 1012.6
20260906012604 24 116 0.0 0.0 0.00 0.76 0.76 99 1012.4
20260906012059 24 116 0.0 0.0 0.00 0.76 0.76 99 1012.5
20260906011555 25 106 0.0 0.0 0.00 0.76 0.76 99 1012.4
20260906011054 25 124 0.0 0.0 0.00 0.76 0.76 99 1012.4
20260906010550 25 102 0.0 0.0 0.00 0.76 0.76 99 1012.3
20260906010046 25 119 0.0 0.0 0.00 0.76 0.76 99 1012.2
20260906005545 25 119 0.0 0.0 0.00 0.76 0.76 99 1011.9
20260906005044 25 119 0.0 0.0 0.00 0.76 0.76 98 1011.8
20260906004544 25 121 0.0 0.0 0.00 0.76 0.76 98 1011.9
20260906004039 25 122 0.0 0.0 0.00 0.76 0.76 97 1011.8
20260906003534 25 128 0.0 1.6 0.00 0.76 0.76 97 1012.1
20260906003030 25 129 0.0 0.0 0.00 0.76 0.76 98 1012.0
20260906002525 26 132 0.0 0.0 0.00 0.76 0.76 99 1011.8
20260906002020 26 119 0.0 0.0 0.00 0.76 0.76 98 1012.1
20260906001515 26 119 0.0 0.0 0.00 0.76 0.76 98 1012.2
20260906001009 26 120 0.0 0.0 0.00 0.76 0.76 96 1012.4
20260906000506 27 121 0.0 0.0 0.00 0.76 0.76 95 1012.3
20260905235959 27 120 0.0 0.0 0.00 0.76 0.76 94 1012.3
20260905235453 27 125 0.0 0.0 0.00 0.76 0.76 93 1012.5
20260905234948 27 125 0.0 0.0 0.00 0.76 0.76 93 1012.7
20260905234444 27 115 0.0 0.0 0.00 0.76 0.76 92 1012.5
20260905233944 28 113 0.0 0.0 0.00 0.76 0.76 91 1012.5
20260905233440 28 119 0.0 0.0 0.00 0.76 0.76 91 1012.4
20260905232938 28 119 0.0 0.0 0.00 0.76 0.76 89 1012.4
20260905232435 28 116 0.0 0.0 0.00 0.76 0.76 88 1012.6
20260905231930 28 117 0.0 0.0 0.00 0.76 0.76 88 1012.7
20260905231426 30 117 0.0 1.6 0.00 0.76 0.76 87 1012.8
20260905230922 30 123 0.0 0.0 0.00 0.76 0.76 81 1012.6
20260905230420 30 117 0.0 0.0 0.00 0.76 0.76 81 1012.5
20260905225913 30 115 1.6 1.6 0.00 0.76 0.76 79 1012.3
20260905225408 30 115 0.0 1.6 0.00 0.76 0.76 80 1012.4
20260905224903 30 108 0.0 1.6 0.00 0.76 0.76 84 1012.4
20260905224359 30 115 1.6 1.6 0.00 0.76 0.76 84 1012.3
20260905223853 30 116 1.6 1.6 0.00 0.76 0.76 81 1012.3
20260905223351 30 110 0.0 1.6 0.00 0.76 0.76 76 1012.4
20260905222846 31 103 1.6 3.2 0.00 0.76 0.76 73 1012.4
20260905222345 31 100 1.6 4.8 0.00 0.76 0.76 75 1012.4
20260905221841 32 99 1.6 3.2 0.00 0.76 0.76 66 1012.5
20260905221337 32 82 1.6 3.2 0.00 0.76 0.76 65 1012.5
20260905220833 32 117 0.0 3.2 0.00 0.76 0.76 74 1012.5
20260905220329 32 116 0.0 0.0 0.00 0.76 0.76 68 1012.2
20260905215827 33 112 0.0 1.6 0.00 0.76 0.76 65 1012.4
20260905215324 33 119 3.2 3.2 0.00 0.76 0.76 61 1012.5
20260905214820 33 137 1.6 3.2 0.00 0.76 0.76 59 1012.2
20260905214315 33 157 3.2 4.8 0.00 0.76 0.76 61 1012.5
20260905213810 33 126 1.6 3.2 0.00 0.76 0.76 63 1012.3
20260905213307 33 115 3.2 4.8 0.00 0.76 0.76 62 1012.3
20260905212806 33 130 1.6 4.8 0.00 0.76 0.76 60 1012.2
20260905212301 33 150 1.6 1.6 0.00 0.76 0.76 59 1012.2
20260905211801 33 149 1.6 4.8 0.00 0.76 0.76 61 1012.4
20260905211256 33 146 3.2 6.4 0.00 0.76 0.76 58 1012.2
20260905210753 33 129 0.0 3.2 0.00 0.76 0.76 57 1012.4
20260905210252 33 142 3.2 6.4 0.00 0.76 0.76 58 1012.5
20260905205751 33 131 1.6 4.8 0.00 0.76 0.76 64 1012.4
20260905205246 33 172 3.2 3.2 0.00 0.76 0.76 59 1012.6
20260905204745 32 145 1.6 4.8 0.00 0.76 0.76 62 1012.5
20260905204241 33 215 9.7 12.9 0.00 0.76 0.76 59 1012.5
20260905203740 33 168 3.2 6.4 0.00 0.76 0.76 59 1012.6
20260905203236 33 129 1.6 6.4 0.00 0.76 0.76 59 1012.6
20260905202731 33 170 4.8 9.7 0.00 0.76 0.76 59 1012.8
20260905202227 33 199 6.4 6.4 0.00 0.76 0.76 60 1012.7
20260905201723 33 212 4.8 4.8 0.00 0.76 0.76 60 1012.9
20260905201222 33 131 3.2 3.2 0.00 0.76 0.76 57 1013.0
20260905200717 33 133 1.6 1.6 0.00 0.76 0.76 59 1013.1
20260905200213 33 148 3.2 9.7 0.00 0.76 0.76 59 1013.1
20260905195711 33 139 1.6 6.4 0.00 0.76 0.76 61 1013.2
20260905195206 33 129 0.0 3.2 0.00 0.76 0.76 58 1013.3
20260905194702 32 121 0.0 1.6 0.00 0.76 0.76 60 1013.4
20260905194155 32 127 0.0 3.2 0.00 0.76 0.76 61 1013.4
20260905193650 32 205 6.4 11.3 0.00 0.76 0.76 59 1013.4
20260905193144 33 152 4.8 4.8 0.00 0.76 0.76 60 1013.6
20260905192640 33 167 1.6 3.2 0.00 0.76 0.76 56 1013.7
20260905192137 33 139 1.6 3.2 0.00 0.76 0.76 60 1013.8
20260905191637 33 172 3.2 6.4 0.00 0.76 0.76 58 1013.7
20260905191134 33 117 1.6 3.2 0.00 0.76 0.76 60 1013.7
20260905190632 32 128 6.4 9.7 0.00 0.76 0.76 61 1013.9
20260905190126 32 140 1.6 3.2 0.00 0.76 0.76 61 1013.7
20260905185625 32 108 1.6 3.2 0.00 0.76 0.76 60 1013.8
20260905185120 32 140 3.2 4.8 0.00 0.76 0.76 60 1013.9
20260905184614 32 99 3.2 6.4 0.00 0.76 0.76 60 1013.9
20260905184113 32 103 3.2 6.4 0.00 0.76 0.76 62 1014.1
20260905183612 32 157 1.6 6.4 0.00 0.76 0.76 62 1014.0
20260905183109 32 62 8.0 9.7 0.00 0.76 0.76 60 1014.0
20260905182608 32 114 1.6 6.4 0.00 0.76 0.76 60 1014.2
20260905182108 32 86 3.2 3.2 0.00 0.76 0.76 58 1014.2
20260905181608 31 169 1.6 9.7 0.00 0.76 0.76 59 1014.4
20260905181107 31 126 1.6 9.7 0.00 0.76 0.76 59 1014.2
20260905180602 31 102 3.2 6.4 0.00 0.76 0.76 60 1014.4
20260905180057 31 176 4.8 4.8 0.00 0.76 0.76 61 1014.5
20260905175556 31 135 3.2 4.8 0.00 0.76 0.76 61 1014.5
20260905175052 31 99 3.2 6.4 0.00 0.76 0.76 64 1014.7
20260905174547 32 39 6.4 9.7 0.00 0.76 0.76 58 1014.6
20260905174042 31 91 3.2 4.8 0.00 0.76 0.76 60 1014.7
20260905173539 31 144 4.8 11.3 0.00 0.76 0.76 59 1014.6
20260905173034 32 152 3.2 3.2 0.00 0.76 0.76 61 1014.6
20260905172533 31 98 3.2 6.4 0.00 0.76 0.76 60 1014.6
20260905172028 31 112 4.8 6.4 0.00 0.76 0.76 60 1014.7
20260905171525 31 121 4.8 9.7 0.00 0.76 0.76 58 1014.7
20260905171020 31 125 0.0 4.8 0.00 0.76 0.76 65 1014.7
20260905170517 31 117 6.4 6.4 0.00 0.76 0.76 58 1015.0
20260905170012 31 105 1.6 3.2 0.00 0.76 0.76 57 1015.0
20260905165507 31 115 0.0 1.6 0.00 0.76 0.76 60 1015.0
20260905165001 31 126 1.6 4.8 0.00 0.76 0.76 63 1015.2
20260905164455 30 50 6.4 11.3 0.00 0.76 0.76 57 1015.4
20260905163950 31 77 4.8 6.4 0.00 0.76 0.76 61 1015.3
20260905163447 31 74 6.4 6.4 0.00 0.76 0.76 57 1015.3
20260905162943 30 115 3.2 9.7 0.00 0.76 0.76 66 1015.3
20260905162438 30 100 6.4 9.7 0.00 0.76 0.76 61 1015.3
20260905161932 30 129 6.4 11.3 0.00 0.76 0.76 64 1015.2
20260905161431 30 31 6.4 12.9 0.00 0.76 0.76 64 1015.4
20260905160930 30 35 6.4 11.3 0.00 0.76 0.76 60 1015.3
20260905160425 29 86 8.0 11.3 0.00 0.76 0.76 65 1015.3
20260905155924 29 82 6.4 11.3 0.00 0.76 0.76 63 1015.3
20260905155418 29 113 6.4 11.3 0.00 0.76 0.76 66 1015.3
20260905154916 28 94 4.8 12.9 0.00 0.76 0.76 67 1015.3
20260905154412 28 111 4.8 12.9 0.00 0.76 0.76 68 1015.4
20260905153908 28 98 6.4 9.7 0.00 0.76 0.76 69 1015.5
20260905153404 28 81 6.4 16.1 0.00 0.76 0.76 69 1015.5
20260905152904 28 53 6.4 9.7 0.00 0.76 0.76 71 1015.8
20260905152403 27 90 6.4 11.3 0.00 0.76 0.76 72 1015.7
20260905151858 28 88 8.0 12.9 0.00 0.76 0.76 70 1015.8
20260905151355 27 50 3.2 9.7 0.00 0.76 0.76 74 1015.7
20260905150854 27 120 3.2 6.4 0.00 0.76 0.76 77 1016.0
20260905150348 27 58 3.2 6.4 0.00 0.76 0.76 73 1016.0
20260905145846 27 85 3.2 9.7 0.00 0.76 0.76 77 1015.9
20260905145346 26 59 3.2 6.4 0.00 0.76 0.76 78 1015.9
20260905144845 26 56 4.8 11.3 0.00 0.76 0.76 78 1015.9
20260905144336 26 95 4.8 11.3 0.00 0.76 0.76 78 1015.9
20260905143834 25 105 6.4 9.7 0.00 0.76 0.76 82 1015.8
20260905143328 25 79 9.7 11.3 0.00 0.76 0.76 80 1016.1
20260905142827 25 54 4.8 11.3 0.00 0.76 0.76 82 1016.1
20260905142321 25 82 9.7 16.1 0.00 0.76 0.76 82 1016.2
20260905141817 25 79 6.4 12.9 0.00 0.76 0.76 85 1016.4
20260905141312 25 37 8.0 14.5 0.00 0.76 0.76 85 1016.0
20260905140808 24 81 3.2 9.7 0.00 0.76 0.76 88 1016.4
20260905140308 23 27 9.7 14.5 0.00 0.76 0.76 88 1016.4
20260905135806 23 12 3.2 14.5 0.00 0.76 0.76 89 1016.2
20260905135257 23 16 9.7 16.1 0.00 0.76 0.76 90 1016.1
20260905134757 23 17 14.5 16.1 0.00 0.76 0.76 90 1016.3
20260905134251 22 355 11.3 14.5 0.00 0.76 0.76 92 1016.2
20260905133745 22 32 4.8 9.7 0.00 0.76 0.76 94 1016.2
20260905133240 22 53 8.0 14.5 0.00 0.76 0.76 93 1016.3
20260905132739 22 7 4.8 9.7 0.00 0.76 0.76 96 1016.6
20260905132235 21 30 6.4 14.5 0.00 0.76 0.76 97 1016.4
20260905131730 21 36 4.8 12.9 0.00 0.76 0.76 97 1016.6
20260905131225 21 7 6.4 9.7 0.00 0.76 0.76 97 1016.8
20260905130720 21 27 4.8 14.5 0.13 0.76 0.76 97 1016.9
20260905130219 21 328 8.0 20.9 0.43 0.76 0.76 96 1016.9
20260905125714 21 6 8.0 20.9 0.30 0.74 0.74 95 1016.6
20260905125209 22 5 9.7 12.9 0.00 0.69 0.69 91 1017.0
20260905124706 22 63 4.8 6.4 0.00 0.69 0.69 91 1017.3
20260905124201 22 46 3.2 4.8 0.00 0.69 0.69 91 1017.0
20260905123656 22 29 3.2 6.4 0.00 0.69 0.69 91 1016.8
20260905123154 22 11 3.2 14.5 0.00 0.69 0.69 91 1016.4
20260905122653 22 26 8.0 11.3 0.00 0.69 0.69 92 1016.4
20260905122148 22 25 3.2 9.7 0.00 0.69 0.69 93 1016.1
20260905121642 22 9 4.8 6.4 0.00 0.69 0.69 92 1015.9
20260905121138 22 58 1.6 4.8 0.00 0.69 0.69 93 1015.7
20260905120637 22 8 6.4 6.4 0.00 0.69 0.69 94 1015.9
20260905120132 22 32 4.8 11.3 0.00 0.69 0.69 94 1015.8
20260905115631 22 344 6.4 9.7 0.00 0.69 0.69 94 1015.8
20260905115126 22 30 6.4 11.3 0.00 0.69 0.69 94 1015.5
20260905114626 22 96 4.8 11.3 0.00 0.69 0.69 93 1015.6
20260905114125 22 16 6.4 9.7 0.00 0.69 0.69 93 1015.6
20260905113620 22 327 6.4 14.5 0.00 0.69 0.69 93 1015.6
20260905113116 22 11 4.8 11.3 0.00 0.69 0.69 93 1015.6
20260905112610 22 349 6.4 11.3 0.00 0.69 0.69 93 1015.5
20260905112106 22 134 3.2 6.4 0.00 0.69 0.69 95 1015.4
20260905111606 22 4 6.4 11.3 0.00 0.69 0.69 95 1015.5
20260905111105 22 5 4.8 12.9 0.00 0.69 0.69 95 1015.5
20260905110604 22 321 8.0 16.1 0.00 0.69 0.69 94 1015.3
20260905110059 22 78 6.4 11.3 0.00 0.69 0.69 94 1014.9
20260905105554 22 34 6.4 17.7 0.00 0.69 0.69 93 1015.0
20260905105053 22 69 3.2 12.9 0.00 0.69 0.69 95 1015.4